RYR4LB LHBP-LGSK

Flight info

Callsign RYR4LB
Flight time 1h 24m
Altitude 33000
Route FAHAZ DCT KEROP DCT XENIT DCT IDABO DCT CLODY DCT IBISI DCT MAKED UL617 IBIDI
Aircraft B738/M-SDE2E3FGHIRWXY/LB1

Departure

Time 2026-04-21 14:00
Airport Budapest Liszt Ferenc International Airport (LHBP)

Arrival

Time 2026-04-21 15:24
Airport Skiathos Island National Airport (LGSK)
Time Latitude Longitude Altitude Speed Heading
2026-04-21 13:41 47.43513 19.25975 456 ft 0 kts 312°
2026-04-21 13:55 47.43516 19.25970 456 ft 4 kts 312°
2026-04-21 13:56 47.43527 19.25952 455 ft 2 kts 312°
2026-04-21 13:56 47.43540 19.25915 456 ft 7 kts 271°
2026-04-21 13:56 47.43502 19.25843 456 ft 10 kts 222°
2026-04-21 13:56 47.43451 19.25775 456 ft 10 kts 222°
2026-04-21 13:57 47.43402 19.25708 456 ft 9 kts 222°
2026-04-21 13:57 47.43347 19.25634 456 ft 12 kts 222°
2026-04-21 13:57 47.43296 19.25538 456 ft 12 kts 266°
2026-04-21 13:57 47.43339 19.25434 456 ft 12 kts 303°
2026-04-21 13:58 47.43305 19.25335 456 ft 12 kts 222°
2026-04-21 13:58 47.43237 19.25244 455 ft 16 kts 222°
2026-04-21 13:58 47.43153 19.25131 455 ft 16 kts 222°
2026-04-21 13:58 47.43086 19.25006 456 ft 16 kts 260°
2026-04-21 13:59 47.43140 19.24876 456 ft 16 kts 313°
2026-04-21 13:59 47.43311 19.24600 452 ft 69 kts 312°
2026-04-21 13:59 47.43787 19.23831 454 ft 131 kts 312°
2026-04-21 13:59 47.44239 19.23111 495 ft 159 kts 314°
2026-04-21 14:00 47.45135 19.21711 1162 ft 171 kts 316°
2026-04-21 14:00 47.45937 19.20428 1842 ft 176 kts 316°
2026-04-21 14:00 47.46763 19.19075 2449 ft 187 kts 314°
2026-04-21 14:00 47.47684 19.17574 2728 ft 214 kts 313°
2026-04-21 14:01 47.48582 19.15622 2994 ft 238 kts 295°
2026-04-21 14:01 47.48966 19.13243 3525 ft 250 kts 274°
2026-04-21 14:01 47.48695 19.10724 3937 ft 271 kts 248°
2026-04-21 14:01 47.48035 19.09110 4496 ft 274 kts 228°
2026-04-21 14:02 47.46540 19.07463 5378 ft 276 kts 205°
2026-04-21 14:02 47.44180 19.05966 6526 ft 280 kts 202°
2026-04-21 14:02 47.42968 19.05208 7143 ft 280 kts 203°
2026-04-21 14:03 47.39467 19.02900 8724 ft 284 kts 205°
2026-04-21 14:03 47.37665 19.01658 9533 ft 289 kts 206°
2026-04-21 14:03 47.35829 19.00379 10212 ft 296 kts 206°
2026-04-21 14:03 47.34281 18.99297 10448 ft 314 kts 206°
2026-04-21 14:04 47.32269 18.97898 10622 ft 337 kts 206°
2026-04-21 14:04 47.30082 18.96398 10984 ft 353 kts 205°
2026-04-21 14:04 47.27820 18.94854 11586 ft 360 kts 205°
2026-04-21 14:04 47.25544 18.93303 12400 ft 362 kts 206°
2026-04-21 14:05 47.23238 18.91730 13039 ft 368 kts 206°
2026-04-21 14:05 47.20907 18.90140 13807 ft 371 kts 206°
2026-04-21 14:05 47.18560 18.88540 14499 ft 373 kts 206°
2026-04-21 14:05 47.16197 18.86930 15169 ft 375 kts 206°
2026-04-21 14:06 47.13817 18.85315 15860 ft 377 kts 205°
2026-04-21 14:06 47.11277 18.84290 16465 ft 385 kts 184°
2026-04-21 14:06 47.08606 18.84767 17083 ft 392 kts 163°
2026-04-21 14:06 47.06153 18.86558 17689 ft 398 kts 146°
2026-04-21 14:07 47.03894 18.88947 18298 ft 402 kts 144°
2026-04-21 14:07 47.01632 18.91404 18804 ft 406 kts 144°
2026-04-21 14:07 46.99348 18.93877 19310 ft 410 kts 144°
2026-04-21 14:07 46.97033 18.96354 19841 ft 413 kts 145°
2026-04-21 14:08 46.94694 18.98827 20358 ft 417 kts 146°
2026-04-21 14:08 46.92329 19.01310 20861 ft 420 kts 146°
2026-04-21 14:08 46.89940 19.03810 21363 ft 424 kts 146°
2026-04-21 14:08 46.87517 19.06294 21845 ft 427 kts 148°
2026-04-21 14:09 46.85019 19.08676 22326 ft 430 kts 149°
2026-04-21 14:09 46.82480 19.11013 22810 ft 433 kts 149°
2026-04-21 14:09 46.79913 19.13353 23282 ft 436 kts 149°
2026-04-21 14:09 46.77335 19.15706 23726 ft 439 kts 149°
2026-04-21 14:10 46.74737 19.18088 24099 ft 442 kts 149°
2026-04-21 14:10 46.72161 19.20461 24479 ft 445 kts 149°
2026-04-21 14:10 46.69539 19.22883 24856 ft 448 kts 149°
2026-04-21 14:10 46.66902 19.25321 25223 ft 450 kts 149°
2026-04-21 14:11 46.64247 19.27774 25577 ft 453 kts 149°
2026-04-21 14:11 46.61578 19.30239 25931 ft 456 kts 149°
2026-04-21 14:11 46.58897 19.32712 26290 ft 458 kts 150°
2026-04-21 14:11 46.56196 19.35199 26580 ft 462 kts 150°
2026-04-21 14:12 46.53463 19.37712 26783 ft 467 kts 150°
2026-04-21 14:12 46.50705 19.40244 27110 ft 470 kts 150°
2026-04-21 14:12 46.47940 19.42782 27468 ft 472 kts 150°
2026-04-21 14:12 46.45161 19.45328 27804 ft 474 kts 150°
2026-04-21 14:13 46.42362 19.47890 28103 ft 476 kts 151°
2026-04-21 14:13 46.39585 19.50429 28377 ft 479 kts 151°
2026-04-21 14:13 46.36757 19.53011 28667 ft 482 kts 151°
2026-04-21 14:13 46.33915 19.55602 28959 ft 484 kts 151°
2026-04-21 14:14 46.31050 19.58212 29222 ft 486 kts 151°
2026-04-21 14:14 46.28171 19.60831 29369 ft 492 kts 152°
2026-04-21 14:14 46.25262 19.63474 29540 ft 496 kts 152°
2026-04-21 14:14 46.22338 19.66129 29955 ft 495 kts 152°
2026-04-21 14:15 46.19432 19.68762 30378 ft 492 kts 153°
2026-04-21 14:15 46.16445 19.71143 30731 ft 486 kts 160°
2026-04-21 14:15 46.13366 19.73111 31022 ft 485 kts 162°
2026-04-21 14:15 46.10251 19.74991 31295 ft 485 kts 163°
2026-04-21 14:16 46.07132 19.76844 31598 ft 485 kts 163°
2026-04-21 14:16 46.04017 19.78700 31847 ft 485 kts 163°
2026-04-21 14:16 46.00895 19.80582 32060 ft 487 kts 163°
2026-04-21 14:16 45.98031 19.82327 32329 ft 487 kts 162°
2026-04-21 14:17 45.94950 19.84219 32660 ft 486 kts 162°
2026-04-21 14:17 45.91843 19.86135 32994 ft 485 kts 162°
2026-04-21 14:17 45.88730 19.88055 32994 ft 490 kts 162°
2026-04-21 14:18 45.82462 19.91914 32972 ft 490 kts 163°
2026-04-21 14:18 45.76208 19.95756 33000 ft 487 kts 163°
2026-04-21 14:19 45.69989 19.99563 33007 ft 486 kts 163°
2026-04-21 14:19 45.64019 20.03207 33015 ft 486 kts 163°
2026-04-21 14:20 45.57800 20.06993 32979 ft 486 kts 164°
2026-04-21 14:20 45.51570 20.10777 33003 ft 487 kts 164°
2026-04-21 14:21 45.45332 20.14557 33008 ft 488 kts 164°
2026-04-21 14:21 45.39109 20.18318 33007 ft 490 kts 164°
2026-04-21 14:22 45.32830 20.22106 32994 ft 490 kts 165°
2026-04-21 14:22 45.26541 20.25890 32999 ft 491 kts 165°
2026-04-21 14:23 45.20245 20.29669 33013 ft 492 kts 165°
2026-04-21 14:23 45.13918 20.33457 32988 ft 493 kts 165°
2026-04-21 14:24 45.07598 20.37234 33005 ft 493 kts 165°
2026-04-21 14:24 45.01267 20.41007 33004 ft 493 kts 165°
2026-04-21 14:25 44.94990 20.44739 33018 ft 493 kts 165°
2026-04-21 14:25 44.88710 20.48463 33022 ft 493 kts 165°
2026-04-21 14:26 44.82383 20.52207 33026 ft 492 kts 165°
2026-04-21 14:26 44.76068 20.55934 33025 ft 492 kts 165°
2026-04-21 14:27 44.69751 20.59654 33026 ft 492 kts 165°
2026-04-21 14:27 44.63440 20.63362 33021 ft 491 kts 165°
2026-04-21 14:28 44.57128 20.67062 33013 ft 490 kts 165°
2026-04-21 14:28 44.50841 20.70738 33017 ft 490 kts 165°
2026-04-21 14:29 44.44546 20.74410 32980 ft 489 kts 165°
2026-04-21 14:29 44.38278 20.78059 33006 ft 488 kts 165°
2026-04-21 14:30 44.32008 20.81703 33014 ft 488 kts 164°
2026-04-21 14:30 44.25812 20.85690 33013 ft 491 kts 161°
2026-04-21 14:31 44.19695 20.89827 32984 ft 491 kts 161°
2026-04-21 14:31 44.13538 20.93916 33001 ft 490 kts 161°
2026-04-21 14:32 44.07376 20.97951 33009 ft 489 kts 161°
2026-04-21 14:32 44.01378 21.01867 33011 ft 489 kts 161°
2026-04-21 14:33 43.95245 21.05854 33006 ft 488 kts 161°
2026-04-21 14:33 43.89083 21.09825 32998 ft 487 kts 161°
2026-04-21 14:34 43.82943 21.13774 33017 ft 486 kts 161°
2026-04-21 14:34 43.76842 21.17693 32983 ft 486 kts 161°
2026-04-21 14:35 43.70714 21.21624 33017 ft 485 kts 161°
2026-04-21 14:35 43.64588 21.25544 33021 ft 485 kts 161°
2026-04-21 14:36 43.58460 21.29457 33021 ft 485 kts 161°
2026-04-21 14:36 43.52329 21.33357 33008 ft 485 kts 161°
2026-04-21 14:37 43.46185 21.37203 33017 ft 485 kts 161°
2026-04-21 14:37 43.40026 21.41036 33032 ft 486 kts 161°
2026-04-21 14:38 43.33863 21.44870 33020 ft 486 kts 161°
2026-04-21 14:38 43.27750 21.48671 33020 ft 484 kts 161°
2026-04-21 14:39 43.21616 21.52477 33017 ft 483 kts 161°
2026-04-21 14:39 43.15499 21.56264 33020 ft 481 kts 161°
2026-04-21 14:40 43.09395 21.60033 33011 ft 480 kts 161°
2026-04-21 14:40 43.03318 21.63777 33023 ft 479 kts 161°
2026-04-21 14:41 42.97273 21.67495 33026 ft 478 kts 161°
2026-04-21 14:41 42.91118 21.70812 33030 ft 473 kts 167°
2026-04-21 14:42 42.84876 21.73652 33016 ft 473 kts 168°
2026-04-21 14:42 42.78629 21.76466 33021 ft 473 kts 168°
2026-04-21 14:43 42.72409 21.79319 33031 ft 475 kts 167°
2026-04-21 14:43 42.66273 21.82174 33023 ft 474 kts 167°
2026-04-21 14:44 42.60063 21.85069 33031 ft 474 kts 167°
2026-04-21 14:44 42.53820 21.87968 33022 ft 474 kts 167°
2026-04-21 14:45 42.47568 21.90858 33022 ft 475 kts 167°
2026-04-21 14:45 42.41312 21.93744 33007 ft 475 kts 167°
2026-04-21 14:46 42.35040 21.96632 33013 ft 476 kts 167°
2026-04-21 14:46 42.28756 21.99519 33006 ft 478 kts 167°
2026-04-21 14:47 42.22632 22.02328 32986 ft 478 kts 167°
2026-04-21 14:47 42.16332 22.05212 32981 ft 477 kts 167°
2026-04-21 14:48 42.10052 22.08081 32969 ft 475 kts 167°
2026-04-21 14:48 42.03804 22.10928 32948 ft 474 kts 167°
2026-04-21 14:49 41.97603 22.13749 32969 ft 472 kts 167°
2026-04-21 14:49 41.92430 22.16097 32968 ft 471 kts 167°
2026-04-21 14:50 41.86221 22.18909 32965 ft 471 kts 167°
2026-04-21 14:50 41.79013 22.22167 32946 ft 470 kts 167°
2026-04-21 14:51 41.73851 22.24495 32962 ft 471 kts 167°
2026-04-21 14:51 41.67614 22.27301 32953 ft 474 kts 167°
2026-04-21 14:52 41.61357 22.30118 32953 ft 475 kts 167°
2026-04-21 14:52 41.55087 22.32929 32944 ft 475 kts 167°
2026-04-21 14:53 41.48815 22.35733 32923 ft 475 kts 167°
2026-04-21 14:53 41.42570 22.38515 32959 ft 472 kts 167°
2026-04-21 14:54 41.36333 22.41281 32954 ft 471 kts 168°
2026-04-21 14:54 41.30090 22.44035 32941 ft 473 kts 167°
2026-04-21 14:55 41.23886 22.46829 32924 ft 474 kts 167°
2026-04-21 14:55 41.17629 22.49610 32919 ft 475 kts 167°
2026-04-21 14:56 41.11395 22.52590 32902 ft 481 kts 159°
2026-04-21 14:56 41.05459 22.56793 32899 ft 484 kts 156°
2026-04-21 14:57 40.99587 22.61111 32551 ft 488 kts 156°
2026-04-21 14:57 40.96605 22.63270 31947 ft 487 kts 156°
2026-04-21 14:57 40.93625 22.65406 31289 ft 486 kts 156°
2026-04-21 14:57 40.90658 22.67515 30870 ft 481 kts 156°
2026-04-21 14:58 40.87752 22.69574 30386 ft 477 kts 156°
2026-04-21 14:58 40.84837 22.71633 29928 ft 473 kts 156°
2026-04-21 14:58 40.81948 22.73671 29397 ft 469 kts 156°
2026-04-21 14:58 40.79085 22.75690 28913 ft 464 kts 156°
2026-04-21 14:59 40.76245 22.77691 28435 ft 459 kts 156°
2026-04-21 14:59 40.73439 22.79667 27959 ft 455 kts 156°
2026-04-21 14:59 40.70661 22.81621 27499 ft 450 kts 156°
2026-04-21 14:59 40.67907 22.83557 27024 ft 446 kts 156°
2026-04-21 15:00 40.65178 22.85474 26572 ft 442 kts 156°
2026-04-21 15:00 40.62470 22.87372 26112 ft 439 kts 156°
2026-04-21 15:00 40.59786 22.89254 25673 ft 435 kts 156°
2026-04-21 15:00 40.57125 22.91117 25266 ft 432 kts 156°
2026-04-21 15:01 40.54478 22.92969 24823 ft 429 kts 156°
2026-04-21 15:01 40.51853 22.94805 24387 ft 426 kts 156°
2026-04-21 15:01 40.49237 22.96632 23950 ft 424 kts 156°
2026-04-21 15:01 40.46666 22.98425 23491 ft 422 kts 156°
2026-04-21 15:02 40.44056 23.00058 23072 ft 415 kts 162°
2026-04-21 15:02 40.41486 23.01372 22701 ft 409 kts 164°
2026-04-21 15:02 40.38792 23.02673 22276 ft 404 kts 165°
2026-04-21 15:02 40.36160 23.03932 21832 ft 402 kts 165°
2026-04-21 15:03 40.33537 23.05199 21395 ft 400 kts 164°
2026-04-21 15:03 40.30974 23.06452 20968 ft 398 kts 164°
2026-04-21 15:03 40.28396 23.07724 20541 ft 395 kts 164°
2026-04-21 15:03 40.25838 23.08993 20123 ft 392 kts 164°
2026-04-21 15:04 40.23295 23.10256 19691 ft 390 kts 163°
2026-04-21 15:04 40.20765 23.11510 19281 ft 387 kts 163°
2026-04-21 15:04 40.18253 23.12757 18874 ft 385 kts 163°
2026-04-21 15:04 40.15755 23.13995 18469 ft 383 kts 163°
2026-04-21 15:05 40.13273 23.15224 18057 ft 381 kts 163°
2026-04-21 15:05 40.08358 23.17653 17268 ft 373 kts 163°
2026-04-21 15:05 40.05934 23.18850 16856 ft 371 kts 163°
2026-04-21 15:06 40.03533 23.20033 16454 ft 368 kts 163°
2026-04-21 15:06 40.01143 23.21211 16054 ft 366 kts 163°
2026-04-21 15:06 39.98780 23.22374 15652 ft 364 kts 163°
2026-04-21 15:06 39.96425 23.23533 15260 ft 361 kts 163°
2026-04-21 15:07 39.94078 23.24687 14870 ft 360 kts 163°
2026-04-21 15:07 39.91740 23.25836 14476 ft 358 kts 163°
2026-04-21 15:07 39.89413 23.26975 14088 ft 356 kts 163°
2026-04-21 15:07 39.87098 23.28102 13694 ft 355 kts 163°
2026-04-21 15:08 39.84784 23.29226 13263 ft 353 kts 163°
2026-04-21 15:08 39.82490 23.30340 12838 ft 351 kts 163°
2026-04-21 15:08 39.80202 23.31451 12434 ft 349 kts 163°
2026-04-21 15:08 39.77963 23.32539 12039 ft 347 kts 163°
2026-04-21 15:09 39.75702 23.33635 11650 ft 344 kts 163°
2026-04-21 15:09 39.73468 23.34718 11272 ft 342 kts 163°
2026-04-21 15:09 39.71246 23.35800 10906 ft 339 kts 163°
2026-04-21 15:09 39.69048 23.36876 10632 ft 334 kts 163°
2026-04-21 15:10 39.66909 23.37925 10492 ft 324 kts 163°
2026-04-21 15:10 39.64827 23.38945 10350 ft 315 kts 163°
2026-04-21 15:10 39.62803 23.39935 10215 ft 307 kts 163°
2026-04-21 15:10 39.60829 23.40900 10088 ft 299 kts 163°
2026-04-21 15:11 39.58905 23.41838 9959 ft 291 kts 164°
2026-04-21 15:11 39.57026 23.42754 9773 ft 287 kts 164°
2026-04-21 15:11 39.55163 23.43659 9483 ft 285 kts 163°
2026-04-21 15:11 39.53313 23.44558 9195 ft 283 kts 163°
2026-04-21 15:12 39.51471 23.45454 8928 ft 282 kts 163°
2026-04-21 15:12 39.49665 23.46331 8654 ft 280 kts 163°
2026-04-21 15:12 39.47847 23.47215 8381 ft 279 kts 163°
2026-04-21 15:12 39.46034 23.48096 8108 ft 278 kts 163°
2026-04-21 15:13 39.44229 23.48972 7838 ft 276 kts 163°
2026-04-21 15:13 39.42434 23.49843 7566 ft 275 kts 163°
2026-04-21 15:13 39.40653 23.50705 7302 ft 274 kts 163°
2026-04-21 15:13 39.38856 23.51574 7033 ft 274 kts 163°
2026-04-21 15:14 39.37077 23.52433 6752 ft 273 kts 163°
2026-04-21 15:14 39.35298 23.53292 6487 ft 273 kts 163°
2026-04-21 15:14 39.33523 23.54148 6211 ft 272 kts 163°
2026-04-21 15:14 39.31749 23.55004 5922 ft 272 kts 163°
2026-04-21 15:15 39.29992 23.55852 5751 ft 267 kts 163°
2026-04-21 15:15 39.28260 23.56687 5490 ft 265 kts 163°
2026-04-21 15:15 39.26539 23.57516 5239 ft 263 kts 163°
2026-04-21 15:15 39.24827 23.58341 4983 ft 262 kts 163°
2026-04-21 15:16 39.23116 23.59164 4740 ft 261 kts 163°
2026-04-21 15:16 39.21418 23.59980 4492 ft 260 kts 163°
2026-04-21 15:16 39.19728 23.60793 4190 ft 258 kts 163°
2026-04-21 15:16 39.18008 23.61212 4048 ft 247 kts 191°
2026-04-21 15:17 39.16451 23.60599 4040 ft 232 kts 208°
2026-04-21 15:17 39.15018 23.59686 4002 ft 226 kts 211°
2026-04-21 15:17 39.13638 23.58763 3990 ft 224 kts 211°
2026-04-21 15:17 39.12271 23.57840 3747 ft 231 kts 211°
2026-04-21 15:18 39.10848 23.56894 3490 ft 230 kts 211°
2026-04-21 15:18 39.09433 23.55960 3192 ft 226 kts 209°
2026-04-21 15:18 39.08045 23.55050 2934 ft 220 kts 209°
2026-04-21 15:18 39.06702 23.54173 2678 ft 213 kts 209°
2026-04-21 15:19 39.05400 23.53325 2420 ft 207 kts 209°
2026-04-21 15:19 39.04135 23.52500 2162 ft 201 kts 209°
2026-04-21 15:19 39.02929 23.51684 2017 ft 189 kts 216°
2026-04-21 15:19 39.02179 23.50409 1938 ft 179 kts 255°
2026-04-21 15:20 39.02111 23.48825 1899 ft 181 kts 282°
2026-04-21 15:20 39.02714 23.47417 1845 ft 184 kts 315°
2026-04-21 15:20 39.03848 23.46660 1801 ft 189 kts 349°
2026-04-21 15:20 39.05176 23.46815 1782 ft 195 kts
2026-04-21 15:21 39.06523 23.47095 1713 ft 195 kts
2026-04-21 15:21 39.07801 23.47453 1638 ft 180 kts 10°
2026-04-21 15:21 39.08939 23.47779 1583 ft 163 kts
2026-04-21 15:21 39.10039 23.48064 1329 ft 161 kts
2026-04-21 15:22 39.11135 23.48282 1026 ft 159 kts
2026-04-21 15:22 39.12243 23.48402 762 ft 159 kts
2026-04-21 15:22 39.13328 23.48493 545 ft 153 kts
2026-04-21 15:22 39.14326 23.48863 417 ft 148 kts 19°
2026-04-21 15:23 39.15306 23.49304 326 ft 151 kts 17°
2026-04-21 15:23 39.16309 23.49740 216 ft 154 kts 18°
2026-04-21 15:23 39.17317 23.50195 37 ft 150 kts 19°
2026-04-21 15:23 39.18080 23.50533 48 ft 63 kts 19°
2026-04-21 15:24 39.18348 23.50652 55 ft 8 kts 19°
2026-04-21 15:24 39.18396 23.50673 58 ft 8 kts 18°
2026-04-21 15:24 39.18445 23.50694 60 ft 7 kts 18°
2026-04-21 15:24 39.18506 23.50692 54 ft 9 kts
2026-04-21 15:25 39.18505 23.50735 54 ft 6 kts 164°
2026-04-21 15:25 39.18468 23.50707 54 ft 7 kts 212°
2026-04-21 15:25 39.18406 23.50675 59 ft 14 kts 199°
2026-04-21 15:25 39.18324 23.50638 51 ft 19 kts 199°
2026-04-21 15:26 39.18298 23.50626 55 ft 20 kts 199°
2026-04-21 15:26 39.18155 23.50561 48 ft 26 kts 199°
2026-04-21 15:26 39.17995 23.50492 44 ft 14 kts 199°
2026-04-21 15:26 39.17934 23.50424 41 ft 6 kts 248°
2026-04-21 15:27 39.17922 23.50375 41 ft 6 kts 261°
2026-04-21 15:27 39.17934 23.50313 38 ft 7 kts 289°
2026-04-21 15:27 39.17946 23.50269 38 ft 3 kts 289°
2026-04-21 15:27 39.17949 23.50259 38 ft 0 kts 289°